TimeCST,TemperatureF,Dew PointF,Humidity,Sea Level PressureIn,VisibilityMPH,Wind Direction,Wind SpeedMPH,Gust SpeedMPH,PrecipitationIn,Events,Conditions,WindDirDegrees,DateUTC
12:32 AM,23.0,21.2,93,29.99,7.0,NNE,9.2,-,N/A,,Overcast,20,2013-02-07 06:32:00
12:53 AM,23.0,21.2,93,29.99,7.0,NNE,9.2,-,N/A,,Overcast,20,2013-02-07 06:53:00
1:12 AM,23.0,21.2,93,30.00,7.0,North,8.1,-,N/A,,Overcast,10,2013-02-07 07:12:00
1:33 AM,23.0,21.2,93,30.00,7.0,NNE,10.4,-,N/A,,Overcast,20,2013-02-07 07:33:00
1:53 AM,23.0,21.2,93,30.00,7.0,NNE,8.1,16.1,N/A,,Overcast,20,2013-02-07 07:53:00
2:12 AM,23.0,21.2,93,30.01,7.0,NNE,9.2,-,N/A,,Overcast,20,2013-02-07 08:12:00
2:33 AM,23.0,21.2,93,30.01,7.0,NNE,8.1,-,N/A,,Overcast,20,2013-02-07 08:33:00
2:52 AM,23.0,21.2,93,30.02,7.0,NNE,9.2,-,N/A,,Overcast,20,2013-02-07 08:52:00
3:13 AM,23.0,21.2,93,30.02,7.0,North,9.2,-,N/A,,Overcast,10,2013-02-07 09:13:00
3:33 AM,23.0,21.2,93,30.01,5.0,North,11.5,-,N/A,,Overcast,10,2013-02-07 09:33:00
3:53 AM,23.0,21.2,93,30.02,4.0,North,8.1,-,N/A,,Overcast,360,2013-02-07 09:53:00
4:13 AM,21.2,21.2,100,30.03,4.0,North,8.1,-,N/A,,Overcast,360,2013-02-07 10:13:00
4:33 AM,23.0,23.0,100,30.04,4.0,North,6.9,-,N/A,,Overcast,10,2013-02-07 10:33:00
4:53 AM,23.0,23.0,100,30.04,4.0,North,9.2,-,N/A,,Overcast,10,2013-02-07 10:53:00
5:13 AM,23.0,23.0,100,30.03,4.0,NNE,8.1,-,N/A,,Overcast,20,2013-02-07 11:13:00
5:33 AM,23.0,23.0,100,30.03,4.0,North,9.2,-,N/A,,Overcast,10,2013-02-07 11:33:00
5:53 AM,23.0,23.0,100,30.03,4.0,North,10.4,-,N/A,,Overcast,10,2013-02-07 11:53:00
6:13 AM,23.0,23.0,100,30.03,5.0,North,9.2,-,N/A,,Overcast,10,2013-02-07 12:13:00
6:33 AM,23.0,23.0,100,30.04,5.0,North,8.1,-,N/A,,Overcast,10,2013-02-07 12:33:00
6:53 AM,23.0,23.0,100,30.04,4.0,North,10.4,-,N/A,,Overcast,10,2013-02-07 12:53:00
7:13 AM,23.0,23.0,100,30.06,4.0,North,9.2,-,N/A,,Overcast,360,2013-02-07 13:13:00
7:33 AM,23.0,23.0,100,30.07,4.0,North,10.4,-,N/A,,Overcast,360,2013-02-07 13:33:00
7:53 AM,21.2,21.2,100,30.07,3.0,North,9.2,-,N/A,,Overcast,360,2013-02-07 13:53:00
8:13 AM,23.0,23.0,100,30.08,3.0,North,9.2,-,N/A,,Overcast,360,2013-02-07 14:13:00
8:33 AM,23.0,23.0,100,30.08,4.0,North,11.5,-,N/A,,Overcast,10,2013-02-07 14:33:00
8:53 AM,23.0,23.0,100,30.10,4.0,North,8.1,-,N/A,,Overcast,10,2013-02-07 14:53:00
9:13 AM,23.0,23.0,100,30.11,4.0,North,5.8,-,N/A,,Overcast,10,2013-02-07 15:13:00
9:32 AM,24.8,24.8,100,30.11,3.0,North,8.1,-,N/A,,Overcast,10,2013-02-07 15:32:00
10:13 AM,24.8,24.8,100,30.12,5.0,NNE,11.5,-,N/A,,Overcast,20,2013-02-07 16:13:00
10:32 AM,24.8,24.8,100,30.12,4.0,NNE,9.2,-,N/A,,Overcast,30,2013-02-07 16:32:00
10:53 AM,24.8,24.8,100,30.13,5.0,North,9.2,16.1,N/A,,Overcast,10,2013-02-07 16:53:00
11:13 AM,24.8,24.8,100,30.14,4.0,NNE,12.7,-,N/A,,Overcast,20,2013-02-07 17:13:00
11:32 AM,24.8,24.8,100,30.15,5.0,NNE,10.4,-,N/A,,Overcast,20,2013-02-07 17:32:00
11:53 AM,24.8,24.8,100,30.13,5.0,NNE,13.8,17.3,N/A,,Overcast,20,2013-02-07 17:53:00
12:12 PM,26.6,24.8,93,30.13,7.0,NNE,11.5,-,N/A,,Overcast,30,2013-02-07 18:12:00
12:33 PM,26.6,24.8,93,30.12,10.0,NNE,12.7,18.4,N/A,,Overcast,30,2013-02-07 18:33:00
12:53 PM,26.6,24.8,93,30.12,10.0,NNE,13.8,-,N/A,,Overcast,20,2013-02-07 18:53:00
1:12 PM,26.6,24.8,93,30.11,10.0,NNE,12.7,-,N/A,,Overcast,20,2013-02-07 19:12:00
1:33 PM,26.6,24.8,93,30.12,10.0,NNE,12.7,-,N/A,,Overcast,20,2013-02-07 19:33:00
1:53 PM,26.6,24.8,93,30.12,10.0,NNE,12.7,-,N/A,,Overcast,20,2013-02-07 19:53:00
2:12 PM,26.6,24.8,93,30.12,10.0,North,11.5,-,N/A,,Overcast,10,2013-02-07 20:12:00
2:33 PM,28.4,24.8,86,30.12,10.0,North,12.7,-,N/A,,Overcast,360,2013-02-07 20:33:00
2:53 PM,28.4,24.8,86,30.13,10.0,North,11.5,-,N/A,,Overcast,350,2013-02-07 20:53:00
3:12 PM,26.6,24.8,93,30.14,10.0,North,13.8,18.4,N/A,,Overcast,360,2013-02-07 21:12:00
3:33 PM,26.6,24.8,93,30.14,10.0,North,12.7,19.6,N/A,,Overcast,360,2013-02-07 21:33:00
3:53 PM,26.6,24.8,93,30.15,10.0,North,12.7,17.3,N/A,,Overcast,360,2013-02-07 21:53:00
4:12 PM,26.6,24.8,93,30.16,10.0,North,12.7,-,N/A,,Overcast,350,2013-02-07 22:12:00
4:33 PM,26.6,23.0,86,30.16,10.0,North,13.8,-,N/A,,Overcast,360,2013-02-07 22:33:00
4:53 PM,26.6,23.0,86,30.17,10.0,NNE,12.7,-,N/A,,Overcast,30,2013-02-07 22:53:00
5:12 PM,26.6,21.2,80,30.17,10.0,NNE,15.0,19.6,N/A,,Overcast,20,2013-02-07 23:12:00
5:33 PM,24.8,21.2,86,30.18,10.0,North,13.8,-,N/A,,Overcast,10,2013-02-07 23:33:00
5:52 PM,24.8,21.2,86,30.19,10.0,North,8.1,-,N/A,,Overcast,10,2013-02-07 23:52:00
6:13 PM,24.8,21.2,86,30.20,10.0,North,11.5,-,N/A,,Overcast,10,2013-02-08 00:13:00
6:33 PM,24.8,21.2,86,30.20,10.0,North,8.1,-,N/A,,Overcast,360,2013-02-08 00:33:00
6:52 PM,24.8,21.2,86,30.22,10.0,North,9.2,-,N/A,,Overcast,10,2013-02-08 00:52:00
7:13 PM,24.8,21.2,86,30.22,10.0,North,11.5,-,N/A,,Overcast,10,2013-02-08 01:13:00
7:32 PM,24.8,19.4,80,30.22,10.0,North,9.2,-,N/A,,Overcast,10,2013-02-08 01:32:00
7:53 PM,24.8,19.4,80,30.23,10.0,North,8.1,-,N/A,,Overcast,10,2013-02-08 01:53:00
8:13 PM,24.8,19.4,80,30.23,10.0,NNE,9.2,-,N/A,,Overcast,20,2013-02-08 02:13:00
8:32 PM,24.8,19.4,80,30.24,10.0,NNE,6.9,-,N/A,,Overcast,20,2013-02-08 02:32:00
8:53 PM,24.8,19.4,80,30.24,10.0,NE,9.2,-,N/A,,Overcast,40,2013-02-08 02:53:00
9:13 PM,24.8,19.4,80,30.24,10.0,NNE,9.2,-,N/A,,Overcast,30,2013-02-08 03:13:00
9:32 PM,24.8,19.4,80,30.25,10.0,NNE,9.2,-,N/A,,Overcast,20,2013-02-08 03:32:00
9:53 PM,24.8,19.4,80,30.25,10.0,NNE,6.9,-,N/A,,Overcast,20,2013-02-08 03:53:00
10:13 PM,24.8,19.4,80,30.26,10.0,NNE,12.7,17.3,N/A,,Overcast,30,2013-02-08 04:13:00
10:32 PM,24.8,19.4,80,30.25,10.0,NE,6.9,-,N/A,,Overcast,40,2013-02-08 04:32:00
10:53 PM,24.8,19.4,80,30.25,10.0,NNE,5.8,-,N/A,,Overcast,20,2013-02-08 04:53:00
11:13 PM,24.8,17.6,74,30.25,10.0,NNE,5.8,-,N/A,,Mostly Cloudy,30,2013-02-08 05:13:00
11:32 PM,21.2,17.6,86,30.25,10.0,NNE,3.5,-,N/A,,Scattered Clouds,20,2013-02-08 05:32:00
11:53 PM,17.6,15.8,93,30.27,10.0,North,4.6,-,N/A,,Clear,350,2013-02-08 05:53:00